Vorticity
7 6 5 2 3 4 5 7 5 3 2 2 3 2 3 5 9 6 6 3 4 2 2 2 6 8 4 4 4 4 3 4 4 3 3 3 3 3 4 4 4 4 4
8 7 8 6 7 2 5 5 6 4 3 2 3 3 2 3 5 7 12 6 5 4 2 6 9 5 4 3 4 5 3 3 3 3 3 3 3 4 4 5 5 5 4
8 3 4 8 4 4 2 6 4 6 3 2 2 3 3 2 3 6 6 10 8 8 9 11 10 5 4 3 3 5 3 3 3 3 3 2 5 6 6 5 6 5 4
5 6 4 6 5 7 5 3 4 2 8 4 2 3 3 2 2 3 6 5 8 8 10 10 6 7 3 3 3 4 5 3 3 2 3 4 5 5 4 4 4 3 2
3 5 5 5 5 6 4 6 5 3 4 6 5 3 4 3 2 2 4 6 5 6 5 10 7 5 3 3 3 3 5 4 4 3 2 5 4 4 4 4 3 3 3
4 4 4 5 5 8 6 6 8 4 4 3 5 5 4 4 3 2 2 4 7 6 4 4 7 3 3 3 3 3 5 6 4 4 1 4 6 4 3 4 4 4 4
6 6 5 4 4 2 6 7 6 5 7 5 4 6 4 4 5 3 2 2 4 8 6 6 4 4 4 3 3 3 5 6 4 2 2 5 6 3 3 3 3 4 5
7 7 6 6 5 6 5 5 6 7 4 5 6 5 4 5 4 5 3 3 3 5 9 6 6 6 4 4 3 3 5 6 3 2 2 5 5 4 4 4 4 4 5
8 8 8 7 7 7 6 4 6 7 7 6 4 6 5 4 5 3 6 4 3 3 5 10 6 7 5 4 3 3 6 6 4 1 2 5 6 5 5 5 4 4 5
11 10 9 10 8 6 9 9 6 4 7 8 7 6 6 5 3 4 4 5 4 2 5 6 10 9 7 4 3 3 6 6 3 0 3 5 6 6 5 6 5 5 4
5 6 7 8 9 9 7 7 7 6 7 7 9 9 6 6 5 3 4 3 6 6 2 6 9 9 8 5 3 4 6 5 3 2 3 5 6 7 6 4 4 4 4
4 5 6 6 6 6 7 8 9 8 6 5 8 11 10 7 4 5 3 4 4 5 6 4 7 9 6 5 4 5 6 5 4 2 3 4 7 7 4 3 3 5 5
5 6 5 4 4 4 5 5 5 6 7 7 8 5 9 13 8 3 5 3 2 5 1 6 6 7 5 5 6 6 6 5 3 1 2 4 8 6 4 5 7 5 6
10 8 7 7 5 5 5 3 4 4 4 4 4 6 9 5 13 10 3 5 2 1 4 4 7 6 6 4 6 6 6 5 3 1 3 6 8 5 6 7 5 6 3
9 8 8 7 7 8 7 6 6 6 5 5 4 3 4 8 6 11 15 3 6 1 5 4 5 6 6 5 5 7 6 5 3 1 4 6 7 4 6 5 6 2 3
8 8 8 7 7 8 7 7 7 7 6 6 5 6 5 3 5 8 9 17 4 4 3 3 4 7 5 5 4 6 7 4 3 1 4 6 7 6 4 6 5 2 4
8 8 8 7 10 12 13 14 15 15 14 13 13 11 8 4 5 5 7 7 11 5 1 6 5 5 7 6 6 5 8 5 3 2 4 5 6 6 4 4 4 4 2
10 8 12 13 16 15 11 9 11 12 12 12 12 12 14 11 8 6 7 7 9 3 12 -3 6 3 6 7 6 5 7 6 3 2 3 5 6 5 3 2 3 3 2
9 10 12 9 5 5 6 6 5 5 4 6 7 9 9 8 12 7 10 8 10 12 11 13 5 3 3 7 6 5 6 6 4 2 2 5 5 5 4 1 3 3 1
10 9 7 6 5 6 5 4 2 3 4 4 5 4 7 9 9 8 7 12 12 8 10 -9 22 6 3 3 7 5 6 5 5 3 2 3 5 4 4 2 2 4 3
11 10 9 6 4 5 7 9 9 7 11 12 29 37 34 7 13 8 5 6 13 23 -21 29 -2 3 -3 1 6 6 4 5 5 4 2 2 4 4 4 4 4 3 5
7 7 7 4 5 7 8 9 10 12 16 13 11 14 16 46 36 6 12 7 4 4 11 5 12 -16 5 3 4 7 6 6 5 5 3 2 3 4 4 4 4 4 3
8 8 6 5 6 10 12 5 16 24 11 -5 14 25 3 3 30 41 13 11 9 19 10 4 15 -1 18 -0 -0 8 7 6 8 6 6 4 3 4 4 3 4 4 4
6 6 7 9 7 11 4 9 6 28 3 -1 3 9 20 11 7 16 33 17 11 10 19 9 2 3 13 3 3 3 8 7 5 5 7 7 3 4 4 3 2 3 4
10 10 10 9 10 10 10 9 2 33 24 5 11 12 4 36 18 27 18 28 7 6 18 21 12 -9 9 27 -3 6 8 6 6 7 6 4 2 0 2 3 3 3 3
10 12 10 8 10 8 8 9 7 42 -0 3 37 10 9 25 11 28 16 23 27 12 10 2 7 0 -6 11 17 -2 5 7 6 4 5 6 6 6 3 1 1 1 2
Height
5829 5830 5831 5832 5833 5836 5839 5841 5842 5843 5844 5845 5847 5848 5850 5851 5852 5854 5855 5857 5859 5861 5863 5865 5867 5869 5871 5872 5874 5875 5876 5878 5879 5880 5882 5883 5883 5884 5884 5885 5885 5885 5885
5827 5828 5829 5830 5831 5833 5835 5838 5840 5842 5842 5844 5846 5847 5849 5850 5851 5852 5854 5855 5857 5859 5861 5864 5865 5868 5870 5872 5873 5875 5877 5878 5879 5881 5882 5883 5884 5884 5884 5885 5885 5885 5886
5824 5825 5825 5826 5827 5829 5831 5834 5837 5839 5840 5842 5844 5846 5848 5848 5850 5851 5852 5853 5855 5857 5859 5861 5864 5866 5869 5871 5872 5874 5876 5878 5879 5880 5882 5883 5883 5884 5884 5885 5885 5886 5886
5820 5820 5821 5823 5824 5825 5827 5829 5832 5835 5837 5839 5841 5842 5845 5847 5848 5849 5851 5852 5854 5855 5857 5859 5862 5865 5868 5870 5871 5873 5875 5876 5878 5880 5881 5882 5882 5883 5884 5884 5885 5885 5885
5815 5817 5818 5819 5821 5822 5824 5825 5828 5830 5833 5835 5837 5839 5841 5843 5845 5847 5849 5851 5852 5854 5856 5858 5861 5863 5866 5868 5870 5872 5874 5875 5877 5879 5880 5881 5881 5881 5882 5883 5884 5884 5884
5811 5813 5814 5816 5817 5819 5820 5821 5823 5825 5828 5831 5833 5836 5838 5840 5842 5844 5847 5849 5850 5852 5855 5857 5859 5862 5864 5866 5868 5871 5873 5874 5876 5877 5879 5879 5880 5880 5881 5882 5882 5883 5883
5806 5807 5809 5810 5811 5813 5815 5816 5819 5821 5823 5825 5829 5831 5834 5836 5838 5840 5843 5846 5848 5850 5852 5855 5857 5860 5861 5863 5866 5869 5871 5873 5874 5876 5877 5878 5878 5878 5879 5880 5880 5881 5882
5800 5801 5803 5804 5806 5808 5810 5811 5813 5815 5817 5820 5823 5826 5829 5831 5834 5835 5838 5841 5844 5847 5849 5851 5854 5857 5859 5861 5864 5866 5868 5870 5872 5874 5875 5876 5877 5877 5877 5878 5878 5879 5880
5793 5795 5797 5799 5799 5802 5804 5806 5808 5810 5811 5814 5817 5820 5823 5826 5829 5832 5835 5837 5839 5842 5845 5848 5851 5854 5855 5858 5861 5863 5865 5868 5870 5871 5873 5873 5874 5875 5876 5876 5877 5878 5879
5786 5788 5790 5792 5794 5794 5797 5799 5801 5803 5805 5807 5810 5813 5817 5820 5824 5827 5829 5832 5835 5837 5840 5843 5847 5850 5852 5855 5857 5860 5862 5865 5867 5868 5870 5871 5872 5872 5873 5874 5875 5876 5878
5780 5782 5784 5785 5786 5788 5790 5792 5794 5796 5798 5801 5804 5806 5810 5813 5817 5820 5823 5826 5830 5832 5835 5839 5842 5845 5848 5851 5853 5856 5859 5862 5864 5865 5866 5868 5869 5870 5871 5872 5873 5874 5875
5775 5775 5776 5778 5780 5781 5783 5784 5787 5789 5791 5793 5796 5799 5802 5806 5809 5813 5816 5819 5823 5826 5830 5833 5838 5841 5844 5846 5849 5852 5855 5858 5861 5862 5863 5864 5866 5867 5868 5869 5870 5872 5873
5768 5768 5769 5770 5771 5774 5775 5777 5778 5781 5783 5785 5788 5791 5794 5798 5801 5805 5808 5812 5817 5820 5824 5828 5832 5836 5838 5840 5843 5847 5850 5853 5856 5858 5859 5861 5862 5864 5865 5866 5868 5869 5870
5759 5760 5761 5762 5763 5765 5768 5769 5770 5772 5775 5777 5779 5782 5786 5789 5792 5797 5800 5804 5809 5814 5816 5820 5825 5829 5832 5834 5838 5841 5845 5848 5851 5853 5855 5857 5859 5860 5862 5863 5865 5867 5868
5750 5751 5751 5752 5754 5756 5758 5761 5762 5763 5765 5767 5770 5773 5777 5780 5784 5787 5790 5795 5800 5805 5808 5812 5817 5822 5825 5828 5831 5835 5839 5842 5845 5848 5850 5853 5855 5856 5858 5861 5862 5864 5865
5740 5741 5742 5743 5744 5745 5746 5749 5752 5753 5755 5756 5759 5762 5765 5770 5774 5777 5781 5785 5790 5795 5800 5803 5808 5813 5817 5821 5824 5828 5832 5835 5839 5843 5845 5848 5850 5852 5854 5856 5859 5860 5861
5730 5731 5732 5733 5733 5734 5734 5736 5738 5741 5743 5744 5746 5749 5753 5757 5762 5766 5770 5774 5779 5785 5790 5795 5799 5804 5809 5814 5817 5821 5825 5828 5832 5836 5839 5842 5845 5847 5849 5851 5853 5856 5856
5721 5721 5721 5722 5723 5724 5724 5725 5726 5728 5731 5732 5734 5736 5740 5743 5748 5753 5758 5763 5768 5775 5772 5786 5790 5794 5800 5805 5809 5813 5817 5821 5824 5829 5832 5836 5838 5841 5844 5846 5847 5850 5852
5711 5711 5711 5712 5713 5714 5715 5716 5716 5717 5718 5720 5722 5724 5726 5729 5733 5738 5743 5749 5755 5761 5769 5768 5779 5784 5790 5796 5800 5804 5809 5812 5816 5821 5825 5828 5831 5834 5837 5840 5842 5844 5846
5702 5701 5702 5703 5704 5704 5704 5704 5704 5705 5704 5705 5707 5709 5710 5713 5717 5722 5728 5734 5740 5747 5753 5761 5766 5772 5777 5784 5790 5795 5799 5803 5808 5812 5817 5821 5824 5827 5830 5833 5836 5838 5839
5692 5691 5692 5693 5693 5693 5693 5693 5692 5691 5689 5687 5686 5687 5689 5694 5698 5703 5710 5717 5723 5730 5736 5738 5752 5759 5765 5772 5779 5785 5790 5794 5798 5804 5809 5813 5817 5821 5824 5827 5828 5831 5832
5683 5681 5681 5681 5681 5681 5681 5680 5678 5676 5673 5672 5670 5671 5670 5671 5675 5682 5690 5699 5706 5714 5719 5725 5735 5737 5752 5759 5766 5774 5780 5786 5790 5796 5801 5805 5810 5814 5817 5819 5821 5823 5824
5673 5673 5672 5671 5669 5668 5668 5666 5663 5661 5660 5658 5657 5656 5656 5656 5656 5659 5668 5677 5686 5695 5704 5712 5722 5732 5736 5745 5754 5761 5769 5777 5783 5788 5793 5797 5801 5806 5809 5811 5813 5815 5816
5663 5662 5662 5660 5659 5657 5655 5653 5650 5647 5646 5644 5642 5641 5641 5641 5642 5644 5648 5656 5667 5676 5684 5696 5706 5712 5723 5731 5738 5747 5757 5766 5770 5776 5782 5788 5792 5796 5799 5802 5804 5805 5807
5653 5652 5651 5650 5648 5646 5644 5642 5639 5634 5632 5631 5628 5625 5623 5623 5624 5626 5631 5637 5648 5659 5668 5679 5690 5701 5710 5712 5727 5731 5744 5753 5759 5765 5770 5776 5781 5786 5789 5791 5793 5795 5797
5645 5643 5641 5639 5637 5635 5633 5630 5627 5620 5619 5617 5612 5610 5608 5608 5609 5610 5613 5620 5630 5641 5653 5665 5674 5684 5695 5702 5707 5719 5730 5741 5748 5753 5759 5764 5770 5773 5776 5779 5783 5786 5788